Change the Weather History Date:

Saturday, April 12, 2014

  Actual Average Record
Temperature  
Mean Temperature 56 °F -  
Max Temperature 69 °F 54 °F 83 °F (1945)
Min Temperature 42 °F 33 °F 18 °F (1926)
Degree Days  
Heating Degree Days 10    
Growing Degree Days 6 (Base 50)    
Moisture  
Dew Point 34 °F    
Average Humidity 53    
Maximum Humidity 89    
Minimum Humidity 17    
Precipitation  
Precipitation 0.02 in - - ()
Sea Level Pressure  
Sea Level Pressure 30.11 in    
Wind  
Wind Speed 5 mph (West)    
Max Wind Speed 13 mph    
Max Gust Speed 24 mph    
Visibility 10 miles    
Events Rain    
Averages and records for this station are not official NWS values.
T = Trace of Precipitation, MM = Missing Value Source: NWS Daily Summary

Daily Weather History Graph

Daily Weather History Graph

Search for Another Location

Airport or City:

Trip Planner

Search our weather history database for the weather conditions in past years. The results will help you decide how hot, cold, wet, or windy it might be!

Date:

Astronomy

Apr. 12, 2014 Rise Set
Actual Time 6:08 AM EDT 7:23 PM EDT
Civil Twilight 5:38 AM EDT 7:52 PM EDT
Nautical Twilight 5:04 AM EDT 8:27 PM EDT
Astronomical Twilight 4:27 AM EDT 9:04 PM EDT
Moon 4:55 PM EDT (4/12) 4:36 AM EDT (4/12)
Length of Visible Light 14h 13m
Length of Day
13h 15m
Waxing Gibbous, 93% of the Moon is Illuminated
Apr 12
Waxing Gibbous
Apr 15
Full
Apr 22
Last Quarter
Apr 29
New
May 6
First Quarter

Hourly Weather History & Observations

Time (EDT) Temp. Windchill Dew Point Humidity Pressure Visibility Wind Dir Wind Speed Gust Speed Precip Events Conditions
12:54 AM 48.9 °F - 45.0 °F 86% 30.01 in 10.0 mi SW 3.5 mph - 0.00 in Rain Light Rain
1:54 AM 48.9 °F - 45.0 °F 86% 30.00 in 10.0 mi NW 4.6 mph - 0.01 in   Overcast
2:42 AM 48.0 °F - 45.0 °F 89% 30.00 in 10.0 mi Calm Calm - 0.01 in   Overcast
2:54 AM 48.0 °F - 45.0 °F 89% 30.00 in 10.0 mi NW 3.5 mph - 0.01 in   Overcast
3:19 AM 48.0 °F - 44.1 °F 86% 30.01 in 10.0 mi Calm Calm - N/A   Overcast
3:54 AM 46.9 °F - 43.0 °F 86% 30.02 in 10.0 mi WNW 3.5 mph - N/A   Mostly Cloudy
4:54 AM 46.0 °F 44.8 °F 41.0 °F 83% 30.05 in 10.0 mi WNW 3.5 mph - N/A   Clear
5:54 AM 42.1 °F - 39.0 °F 89% 30.08 in 10.0 mi Calm Calm - N/A   Clear
6:54 AM 44.1 °F - 39.9 °F 85% 30.11 in 10.0 mi Calm Calm - N/A   Clear
7:54 AM 46.9 °F - 39.0 °F 74% 30.13 in 10.0 mi NW 8.1 mph - N/A   Clear
8:54 AM 50.0 °F - 39.0 °F 66% 30.15 in 10.0 mi NW 5.8 mph - N/A   Clear
9:54 AM 55.0 °F - 37.9 °F 53% 30.16 in 10.0 mi WNW 8.1 mph - N/A   Clear
10:54 AM 57.9 °F - 35.1 °F 42% 30.17 in 10.0 mi West 5.8 mph - N/A   Clear
11:54 AM 62.1 °F - 26.1 °F 25% 30.16 in 10.0 mi WNW 8.1 mph - N/A   Clear
12:54 PM 64.0 °F - 26.1 °F 24% 30.15 in 10.0 mi SW 11.5 mph - N/A   Clear
1:54 PM 66.9 °F - 25.0 °F 21% 30.12 in 10.0 mi Variable 5.8 mph 23.0 mph N/A   Clear
2:54 PM 66.9 °F - 27.0 °F 22% 30.11 in 10.0 mi WSW 12.7 mph 24.2 mph N/A   Clear
3:54 PM 69.1 °F - 27.0 °F 21% 30.09 in 10.0 mi WSW 9.2 mph 18.4 mph N/A   Clear
4:54 PM 68.0 °F - 25.0 °F 20% 30.11 in 10.0 mi WSW 12.7 mph - N/A   Clear
5:54 PM 66.9 °F - 21.0 °F 17% 30.12 in 10.0 mi WNW 11.5 mph - N/A   Clear
6:54 PM 64.9 °F - 24.1 °F 21% 30.16 in 10.0 mi West 10.4 mph - N/A   Clear
7:54 PM 62.1 °F - 25.0 °F 24% 30.17 in 10.0 mi West 5.8 mph - N/A   Clear
8:54 PM 57.0 °F - 27.0 °F 32% 30.20 in 10.0 mi SSE 3.5 mph - N/A   Clear
9:54 PM 53.1 °F - 28.9 °F 40% 30.21 in 10.0 mi SSW 3.5 mph - N/A   Clear
10:54 PM 52.0 °F - 30.0 °F 43% 30.21 in 10.0 mi Calm Calm - N/A   Clear
11:54 PM 48.0 °F - 30.9 °F 52% 30.21 in 10.0 mi SW 3.5 mph - N/A   Clear